Weather History for KUGN - May, 2013

Change the Weather History Date:

Saturday, May 18, 2013

  Actual Average Record
Temperature  
Mean Temperature 60 °F -  
Max Temperature 72 °F 66 °F 76 °F (2015)
Min Temperature 47 °F 46 °F 32 °F (2002)
Degree Days  
Heating Degree Days 5 10  
Month to date heating degree days 196 208  
Since 1 July heating degree days 6496 6650  
Cooling Degree Days 0 1  
Month to date cooling degree days 3 5  
Year to date cooling degree days 11 9  
Growing Degree Days 9 (Base 50)    
Moisture  
Dew Point 50 °F    
Average Humidity 74    
Maximum Humidity 93    
Minimum Humidity 55    
Precipitation  
Precipitation 0.00 in 0.13 in 2.50 in (2000)
Month to date precipitation 0.69 2.30  
Year to date precipitation 11.81 11.15  
Sea Level Pressure  
Sea Level Pressure 30.02 in    
Wind  
Wind Speed 4 mph (East)    
Max Wind Speed 10 mph    
Max Gust Speed 14 mph    
Visibility 8 miles    
Events      
T = Trace of Precipitation, MM = Missing Value Source: NWS Daily Summary

Daily Weather History Graph

Daily Weather History Graph

Search for Another Location

Airport or City:

Trip Planner

Search our weather history database for the weather conditions in past years. The results will help you decide how hot, cold, wet, or windy it might be!

Date:

Astronomy

May. 18, 2013 Rise Set
Actual Time 5:26 AM CDT 8:09 PM CDT
Civil Twilight 4:54 AM CDT 8:42 PM CDT
Nautical Twilight 4:13 AM CDT 9:23 PM CDT
Astronomical Twilight 3:26 AM CDT 10:10 PM CDT
Moon 1:04 PM CDT (5/18) 1:27 AM CDT (5/18)
Length of Visible Light 15h 48m
Length of Day
14h 43m
First Quarter, 55% of the Moon is Illuminated
May 18
First Quarter
May 24
Full
May 31
Last Quarter
Jun 8
New
Jun 16
First Quarter

Hourly Weather History & Observations

Time (CDT) Temp. Dew Point Humidity Pressure Visibility Wind Dir Wind Speed Gust Speed Precip Events Conditions
12:52 AM 50.0 °F 44.1 °F 80% 30.04 in 10.0 mi Calm Calm - N/A   Clear
1:52 AM 48.9 °F 44.1 °F 83% 30.04 in 10.0 mi Calm Calm - N/A   Clear
2:25 AM 48.2 °F 44.6 °F 87% 30.04 in 10.0 mi Calm Calm - N/A   Scattered Clouds
2:50 AM 50.0 °F 44.6 °F 82% 30.04 in 10.0 mi Calm Calm - N/A   Overcast
2:52 AM 50.0 °F 46.0 °F 86% 30.04 in 10.0 mi Calm Calm - N/A   Overcast
3:01 AM 50.0 °F 46.4 °F 87% 30.04 in 10.0 mi NE 4.6 mph - N/A   Overcast
3:52 AM 51.1 °F 46.0 °F 83% 30.06 in 10.0 mi Calm Calm - N/A   Overcast
4:52 AM 53.1 °F 46.0 °F 77% 30.06 in 10.0 mi East 3.5 mph - N/A   Overcast
5:52 AM 52.0 °F 45.0 °F 77% 30.06 in 10.0 mi Calm Calm - N/A   Clear
6:52 AM 53.1 °F 44.1 °F 71% 30.06 in 10.0 mi East 4.6 mph - N/A   Clear
7:52 AM 55.9 °F 44.1 °F 64% 30.07 in 10.0 mi East 6.9 mph - N/A   Clear
8:52 AM 57.9 °F 45.0 °F 62% 30.06 in 10.0 mi ESE 5.8 mph - N/A   Clear
9:52 AM 60.1 °F 45.0 °F 57% 30.06 in 10.0 mi ESE 5.8 mph - N/A   Clear
10:52 AM 64.0 °F 48.0 °F 56% 30.05 in 10.0 mi East 4.6 mph - N/A   Clear
11:52 AM 64.9 °F 50.0 °F 58% 30.05 in 10.0 mi East 6.9 mph - N/A   Clear
12:52 PM 69.1 °F 55.9 °F 63% 30.04 in 8.0 mi ESE 8.1 mph - N/A   Clear
1:52 PM 70.0 °F 57.9 °F 65% 30.02 in 8.0 mi East 8.1 mph - N/A   Clear
2:52 PM 69.1 °F 57.9 °F 68% 30.01 in 7.0 mi East 8.1 mph - N/A   Clear
3:52 PM 68.0 °F 57.0 °F 68% 29.99 in 7.0 mi East 6.9 mph - N/A   Clear
4:52 PM 66.9 °F 57.0 °F 70% 29.98 in 7.0 mi ENE 9.2 mph - N/A   Clear
5:52 PM 66.0 °F 57.0 °F 73% 29.98 in 7.0 mi ENE 6.9 mph - N/A   Clear
6:52 PM 63.0 °F 57.0 °F 81% 29.97 in 6.0 mi East 5.8 mph - N/A   Haze
7:52 PM 59.0 °F 53.1 °F 81% 29.98 in 6.0 mi East 5.8 mph - N/A   Haze
8:52 PM 55.9 °F 51.1 °F 84% 29.98 in 6.0 mi Calm Calm - N/A   Haze
9:52 PM 54.0 °F 51.1 °F 90% 29.99 in 6.0 mi ESE 3.5 mph - N/A   Clear
10:52 PM 54.0 °F 50.0 °F 86% 29.97 in 5.0 mi Calm Calm - N/A   Clear
11:52 PM 54.0 °F 51.1 °F 90% 29.96 in 5.0 mi Calm Calm - N/A   Clear